Flag for U.S.A. Weather past 2 weeks in Glennallen, Alaska, U.S.A.

Now
29 °F

Clear.


Feels Like: 25 °F
Forecast: 29 / 60 °F
Wind: 3 mph from Northeast

Location: Gulkana Airport

Current Time: Sep 3, 2015 at 3:00:47 AM

Latest Report: Sep 3, 2015 at 1:53 AM


Visibility: 10 mi

Pressure: 30.08 "Hg

Humidity: 89%

Dew point: 26 °F

Location of GlennallenLocation

Historic Weather in Glennallen — Graph

°F

Glennallen temperature yesterday

Maximum temperature yesterday: 59 °F (at 4:53 PM)
Minimum temperature yesterday: 28 °F (at 6:53 AM)
Average temperature yesterday: 43 °F

Past Weeks' High & Low Weather Summary

 TemperatureHumidityPressure
High65 °F (Aug 24, 5:53 PM)97% (Aug 19, 4:00 AM)30.26 "Hg (Aug 19, 4:00 AM)
Low28 °F (Sep 2, 6:53 AM)31% (Aug 31, 4:53 PM)29.24 "Hg (Aug 30, 5:53 AM)
Average47 °F65%29.84 "Hg
* Reported Aug 19 1:53 AM — Sep 3 1:53 AM, Glennallen, Weather by CustomWeather, © 2015

Note: Actual official high and low records may vary slightly from our data, if they occured in-between our weather recording intervals... More about our weather records

Advertising

Glennallen weather history for previous 24 hours

 ConditionsComfort  
Time TempWeatherWind HumidityBarometerVisibility
1:53 AM
Thu, Sep 3
29 °FClear.3 mph89%30.08 "Hg10 mi
12:53 AM30 °FClear.No wind89%30.07 "Hg10 mi
11:53 PM
Wed, Sep 2
34 °FClear.No wind82%30.07 "Hg10 mi
10:53 PM35 °FClear.No wind82%30.07 "Hg10 mi
9:53 PM37 °FClear.No wind79%30.07 "Hg10 mi
8:53 PM42 °FSunny.No wind71%30.06 "Hg10 mi
7:53 PM54 °FSunny.No wind47%30.05 "Hg10 mi
6:53 PM57 °FSunny.No wind36%30.06 "Hg10 mi
5:53 PM59 °FSunny.No wind32%30.05 "Hg10 mi
4:53 PM59 °FSunny.No wind33%30.05 "Hg10 mi
3:53 PM56 °FSunny.5 mph37%30.07 "Hg10 mi
2:53 PM55 °FSunny.No wind37%30.08 "Hg10 mi
1:53 PM52 °FSunny.No wind41%30.10 "Hg10 mi
12:53 PM52 °FSunny.6 mph41%30.12 "Hg10 mi
11:53 AM49 °FSunny.No wind46%30.14 "Hg10 mi
10:53 AM44 °FSunny.No wind55%30.15 "Hg10 mi
9:53 AM41 °FSunny.3 mph58%30.16 "Hg10 mi
8:53 AM39 °FSunny.No wind65%30.16 "Hg10 mi
7:53 AM34 °FSunny.No wind76%30.16 "Hg10 mi
6:53 AM28 °FClear.3 mph85%30.17 "Hg10 mi
5:53 AM33 °FClear.6 mph75%30.15 "Hg10 mi
4:53 AM34 °FClear.5 mph70%30.15 "Hg10 mi
3:53 AM36 °FClear.6 mph64%30.14 "Hg10 mi
Weather by CustomWeather, © 2015

See weather overviewHow to use our weather pages